Вернуться в каталог

FENGYUN 1C DEB

АктивенSSO
NORAD 35123·DEBRIS·🇨🇳 China

Запущен May 10, 1999 с Taiyuan Satellite Launch Center

Loading…

Ближайшие Пролёты (ближайшие 24 часа)

TLE

УстаревающийSource: Space-Track

Эпоха: Sep 8, 2026, 11:50 UTC

1 35123U 99025DLB 26251.49371319  .00000549  00000-0  25295-3 0  9996
2 35123  99.1201  89.5477 0049844  24.5868 335.7671 14.24757767649146

Отслеживайте FENGYUN 1C DEB в реальном времени с AllMySat

Download on the App Store